Location: Gramolazzo
(44.1500°N, 10.2333°E)
Time: 08:05:06
(UTC+00:00)

Daily predictions for brighter satellites

Satellite Brightness Start Highest point End
(mag) Time Altitude Azimuth Time Altitude Azimuth Time Altitude Azimuth
Cosmos 1025 Rocket 3.8 19:35:05 10° SSE 19:38:52 32° E 19:42:42 10° NNE
MOS 1 4.4 19:34:26 10° SSE 19:40:07 78° ENE 19:45:50 10° NNW
Cosmos 1709 Rocket 4.4 19:34:18 10° N 19:40:18 49° ENE 19:46:20 10° SSE
Okean 1 Rocket 3.5 19:37:17 10° NNW 19:41:44 69° W 19:46:09 10° S
Cosmos 1455 Rocket 3.6 19:38:37 10° N 19:42:45 41° ENE 19:46:51 10° SSE
Cosmos 1603 4.4 19:38:57 10° SW 19:44:34 61° WNW 19:50:17 10° NNE
Atlas Centaur 2 3.7 19:43:46 10° SW 19:46:04 13° SSW 19:48:11 10° SSE
Meteor 2-5 Rocket 3.8 19:49:40 10° S 19:55:02 55° E 20:00:27 10° NNE
Cosmos 1607 4.0 19:49:09 10° SSW 19:55:16 60° ESE 20:01:21 10° NE
USA 245 4.3 19:51:15 10° SE 19:55:41 39° ENE 19:59:20 10° N
SPOT 1/Viking Rocket 3.6 19:50:42 10° SSE 19:55:49 85° ENE 20:01:01 10° NNW
Cosmos 1455 3.5 19:54:19 10° NNE 19:57:31 25° ENE 20:00:32 11° SE
Ariane Rocket 3.0 19:53:55 10° SSE 19:59:00 78° ENE 20:04:06 10° N
USA 267 4.0 19:55:55 10° ENE 20:01:29 29° SE 20:07:00 10° S
Cosmos 1954 Rocket 4.5 19:57:34 10° N 20:02:42 48° ENE 20:07:25 12° SE
PSLV R/B 4.5 20:03:32 10° N 20:07:38 63° WNW 20:11:44 10° SSW
S3M 4.3 20:01:39 10° SSW 20:07:49 70° W 20:13:58 10° N
SPOT 5 3.4 20:07:10 12° SE 20:10:53 37° ENE 20:14:53 10° N
Cosmos 1953 4.4 20:08:26 10° NNW 20:11:43 25° W 20:14:59 10° SW
Meteor 2-10 Rocket 4.0 20:07:45 10° NNW 20:12:41 57° W 20:17:33 10° S
Cosmos 2369 Rocket 4.4 20:08:56 10° NW 20:12:53 20° W 20:16:50 10° SW
H-2A R/B 3.2 20:10:00 10° N 20:14:14 49° WNW 20:18:32 10° SW
Cosmos 1975 Rocket 3.2 20:10:44 10° S 20:15:11 84° W 20:19:39 10° N
Tiangong 1.3 20:12:51 10° W 20:15:56 50° S 20:18:24 15° ESE
CARTOSAT-1 3.5 20:12:31 10° SSE 20:16:47 82° ENE 20:21:07 10° N
Cosmos 2084 3.1 20:16:35 10° SW 20:20:25 86° SE 20:24:17 10° NE
IRAS Rocket 4.3 20:15:21 10° NNE 20:21:00 86° ESE 20:26:34 10° SSW
USA 102 4.1 20:25:26 23° SE 20:28:17 70° NE 20:36:13 10° NNW
USA 276 1.9 20:25:46 10° WSW 20:28:46 90° SW 20:31:47 10° ENE
Spot 2 Rocket 3.7 20:25:44 15° SSE 20:29:54 62° ENE 20:34:57 10° N
ATLAS 2AS CENTAUR R/B 2.8 20:25:31 10° NW 20:32:40 77° NE 20:37:59 17° SE
Meteor 1-24 Rocket 3.7 20:27:23 10° SSW 20:32:41 82° W 20:38:07 10° N
MetOp-B 4.5 20:27:40 10° S 20:32:57 64° WSW 20:38:18 10° NNW
Cosmos 1544 Rocket 3.5 20:30:16 10° N 20:34:36 77° E 20:37:54 17° SSE
Cosmos 1371 Rocket 4.5 20:30:03 10° SSW 20:35:13 64° WNW 20:40:29 10° NNE
USA 234 4.5 20:29:57 10° E 20:35:52 38° NNE 20:41:47 10° NW
Cosmos 1452 Rocket 4.0 20:31:41 13° SSE 20:35:54 39° ESE 20:40:46 10° NE
Lacrosse 5 2.0 20:31:58 10° NW 20:37:05 69° NE 20:40:57 17° ESE
X-37B 0.1 20:36:11 10° WSW 20:39:00 85° S 20:41:44 11° E
Cosmos 1833 Rocket 3.7 20:36:05 17° SSE 20:39:05 27° ESE 20:43:44 10° NE
Terra 2.1 20:38:02 19° SE 20:41:16 53° ENE 20:45:55 10° N
Cosmos 2184 Rocket 4.2 20:41:29 10° N 20:47:33 57° ENE 20:51:50 20° SSE
Resurs 01 Rocket 3.7 20:44:33 10° SSW 20:48:06 23° W 20:51:40 10° NW
Cosmos 724 4.2 20:45:25 10° SSW 20:51:14 86° ESE 20:57:03 10° NE
Helios 1A Rocket 2.9 20:51:30 21° S 20:54:08 81° WSW 20:58:14 10° NNW
CZ-4B R/B 4.1 20:54:41 10° NNW 20:56:21 14° WNW 20:58:00 10° WSW
Lacrosse 5 rocket 1.8 20:56:24 10° WNW 21:00:08 45° SW 21:01:56 27° S
Cosmos 1271 Rocket 3.3 20:57:59 10° NNW 21:01:53 54° W 21:04:25 20° SSW
Cosmos 2082 Rocket 3.7 21:01:01 17° ESE 21:02:02 18° E 21:05:41 10° ENE
SPOT 3 Rocket 4.5 20:59:34 12° SSW 21:04:04 43° W 21:09:03 10° NNW
USA 102 4.1 19:46:29 10° E 21:06:54 43° W 21:14:38 10° NW
ERS-1 Rocket 3.1 21:03:40 21° S 21:07:07 71° WSW 21:12:09 10° NNW
NOSS 2-1 (E) 4.2 21:02:27 10° NW 21:07:15 83° SW 21:11:18 24° SSE
RESURS DK-1 3.0 21:07:21 10° NNW 21:11:21 46° ENE 21:13:07 28° ESE
CZ-2C R/B 3.9 21:13:04 10° N 21:17:39 69° WNW 21:21:17 15° SSW
ARIANE 5 R/B 2.6 21:18:10 30° S 21:20:21 85° W 21:24:50 10° NNW
Cosmos 1741 Rocket 4.0 21:17:53 10° NNW 21:23:14 81° ENE 21:25:51 31° SSE
SL-8 R/B 4.1 21:24:41 10° WNW 21:29:28 62° NNE 21:33:28 15° E
GP-B 3.8 21:28:39 10° NNE 21:32:48 38° E 21:33:52 32° ESE
Cosmos 1455 4.2 21:29:53 10° NW 21:32:52 22° W 21:35:18 13° SW
Cosmos 2074 Rocket 4.4 21:29:53 10° NNW 21:36:04 60° W 21:40:08 22° SSW
Cosmos 2327 Rocket 4.5 21:30:55 10° N 21:37:18 81° E 21:40:33 31° SSE
COSMOS 2406 3.5 21:37:52 32° SSE 21:40:13 51° ESE 21:45:46 10° NE
ASTEX 1 3.5 21:36:02 10° NNE 21:40:59 60° E 21:42:45 38° SSE
USA 267 3.3 21:38:22 10° NE 21:44:56 84° NW 21:51:29 10° SW
Cosmos 2369 4.4 21:39:46 10° NNW 21:45:18 47° ENE 21:48:09 26° ESE
Cosmos 2228 3.6 21:46:28 10° NNW 21:50:33 48° W 21:52:05 32° SSW
Nadezhda 1 Rocket 4.1 21:47:09 22° SSW 21:51:13 70° W 21:57:17 10° N
Tiangong 3.5 21:49:51 10° WSW 21:50:37 15° WSW 21:50:37 15° WSW
Cosmos 1850 Rocket 4.4 21:48:14 10° NNW 21:53:18 53° WSW 21:55:21 33° SSW
Cosmos 1980 Rocket 2.8 21:48:25 10° NNW 21:53:56 48° ENE 21:56:37 28° ESE
BREEZE-M DEB (TANK) 4.4 21:36:43 10° SW 21:53:58 68° SSE 21:58:25 10° ENE
Cosmos 1606 Rocket 3.6 21:51:23 10° NNW 21:55:41 68° W 21:56:56 44° SSW
Cosmos 1892 3.1 21:55:58 43° E 21:56:01 43° E 21:59:36 10° NNE
Cosmos 1697 Rocket 2.6 21:50:53 10° NNW 21:56:33 87° WSW 21:58:44 39° SSE
Meteor 1-11 4.2 21:57:29 38° SSE 21:59:36 66° E 22:05:09 10° NNE
Cosmos 2154 Rocket 4.4 21:54:48 10° NNW 22:00:52 55° W 22:04:13 26° SSW
Cosmos 2084 Rocket 4.3 21:57:41 10° NNW 22:01:23 39° NE 22:02:43 29° E
USA 276 4.1 22:02:03 10° WNW 22:04:43 28° N 22:07:24 10° NE
Cosmos 1328 4.3 22:04:04 37° SW 22:05:20 54° W 22:09:18 10° N
In-Cosmos 22 Rocket 4.5 22:06:27 39° SE 22:08:05 52° E 22:13:25 10° NNE
X-37B 2.4 22:11:43 10° W 22:12:57 23° WNW 22:12:57 23° WNW
Cosmos 1408 2.3 22:15:26 83° NW 22:15:26 83° NW 22:18:49 10° N
USA 234 3.2 22:14:25 26° ESE 22:18:24 84° NE 22:25:00 10° NW
Terra 3.9 22:16:55 13° SW 22:19:20 18° W 22:22:34 10° NW
Lacrosse 5 3.3 22:15:40 10° WNW 22:19:38 23° WSW 22:20:08 23° SW
Cosmos 1726 Rocket 4.1 22:16:15 10° NNW 22:20:25 47° W 22:21:23 39° SW
Cosmos 1833 Rocket 3.6 22:17:43 12° SW 22:22:44 46° WNW 22:28:09 10° NNE
ATLAS 2AS CENTAUR R/B 4.1 22:17:40 10° WNW 22:22:45 22° WSW 22:25:25 18° SW
Cosmos 2322 Rocket 4.3 22:21:19 10° N 22:25:27 20° NE 22:29:34 10° E
Cosmos 1867 3.9 22:23:36 10° NNW 22:29:01 59° NE 22:31:17 33° ESE
ATLAS 5 CENTAUR R/B 2.9 22:30:25 22° E 22:30:25 22° E 22:32:25 10° ENE
Cosmos 2278 4.2 22:24:26 10° NNW 22:30:05 55° ENE 22:32:24 33° ESE
SL-8 Rocket 3.9 22:25:11 10° N 22:31:27 82° W 22:33:46 41° S
ALOS 2 2.7 22:32:45 54° ESE 22:33:29 64° ENE 22:37:50 10° N
Cosmos 1812 Rocket 4.5 22:29:29 10° N 22:33:40 37° ENE 22:34:25 34° E
Cosmos 1302 Rocket 4.2 22:31:56 35° SW 22:34:04 69° WNW 22:39:17 10° NNE
Cosmos 2218 Rocket 4.0 22:37:07 10° N 22:43:32 79° W 22:45:53 42° S
Cosmos 2082 Rocket 2.3 22:42:49 33° SW 22:45:27 72° WNW 22:51:11 10° NNE
Cosmos 1602 Rocket 3.7 22:45:32 55° ESE 22:45:46 56° E 22:50:00 10° NNE
Cosmos 2366 rocket 4.0 22:40:58 10° NNW 22:47:17 75° W 22:49:34 42° S
RESURS DK-1 4.4 22:46:17 10° WNW 22:48:57 17° WSW 22:48:57 17° WSW
H-2A R/B 3.4 22:46:30 10° NNE 22:50:43 82° WNW 22:51:09 70° SW
Spot 4 4.2 22:52:43 45° SW 22:53:33 51° W 22:58:13 10° NNW
Cosmos 2058 Rocket 4.0 22:50:21 10° NNW 22:54:23 36° W 22:55:04 34° WSW
Cosmos 1825 2.5 22:58:50 54° W 22:58:51 54° W 23:02:32 10° N
Cosmos 2360 Rocket 4.0 23:00:30 10° N 23:05:09 25° NE 23:09:47 10° ESE
ERS-2 2.3 23:02:43 10° NNE 23:05:53 63° NE 23:05:53 63° NE
Cosmos 968 Rocket 4.2 23:01:42 10° NW 23:06:31 39° WSW 23:07:22 37° SW
Cosmos-2242 3.0 23:03:44 10° N 23:07:58 67° E 23:08:16 64° ESE
Cosmos 1626 Rocket 4.0 23:10:22 46° WSW 23:11:00 50° WNW 23:15:14 10° N
SL-8 R/B 4.1 23:07:19 10° WNW 23:11:22 47° WSW 23:11:22 47° WSW
Cosmos 2058 3.5 23:16:21 45° E 23:16:26 45° E 23:20:26 10° NNE
Cosmos 1869 4.2 23:13:40 10° NNW 23:17:08 37° W 23:17:08 37° W
Cosmos 1606 3.0 23:14:33 10° N 23:18:19 59° ENE 23:18:19 59° ENE
Cosmos 1934 Rocket 4.5 23:14:05 10° N 23:19:58 49° ENE 23:22:23 33° SE
ADEOS Rocket 3.6 23:20:28 38° SSW 23:23:09 60° W 23:30:41 10° NNW
Cosmos 1825 Rocket 3.6 23:22:58 59° ESE 23:23:11 60° E 23:27:27 10° NNE
Cosmos 1633 3.2 23:25:15 48° NW 23:25:15 48° NW 23:28:17 10° N
SL-16 R/B 2.3 23:25:25 10° NNW 23:31:07 74° ENE 23:33:07 41° SE
Cosmos 1980 Rocket 3.4 23:32:57 10° NW 23:37:38 27° WSW 23:38:21 26° WSW
SJ 16-02 1.5 23:34:05 10° NNW 23:38:31 67° ENE 23:39:13 56° ESE
Gbstr 26 Del rocket 4.5 23:39:34 27° ESE 23:39:34 27° ESE 23:43:08 10° ENE
Cosmos 1486 Rocket 4.4 23:33:56 10° NNW 23:38:54 46° WSW 23:39:34 44° SW
USA 276 4.0 23:38:15 10° NW 23:40:57 29° N 23:43:38 10° ENE
Meteor 2-2 Rocket 4.4 23:37:48 10° N 23:43:49 79° E 23:45:55 43° SSE
Cosmos 1821 Rocket 4.2 23:37:55 10° NNW 23:44:01 56° W 23:45:54 41° SW
Cosmos 2219 Rocket 4.3 23:41:01 10° N 23:45:31 23° NE 23:50:00 10° ESE
Cosmos 1340 Rocket 2.8 23:48:44 67° E 23:48:44 67° E 23:52:37 10° NNE
CZ-2D R/B 4.0 23:48:04 10° NE 23:51:39 18° E 23:53:35 15° ESE
